Regional Weather Roundup
Issued by NWS

Home | Current Version | Previous Version | Text Only | Print | Product List | Glossary On
Versions: 1 2 3 4 5 6 7 8 9 10 11 12 13 14 15 16 17 18 19 20 21 22 23 24 25 26 27
000
ASPQ40 PGUM 210112
RWRPQ
WEATHER ROUNDUP FOR THE MARIANAS AND MICRONESIA
NATIONAL WEATHER SERVICE TIYAN GU
1100 AM CHST TUE FEB 21 2017

GUZ001>004-210200-
MARIANA ISLANDS-

CITY           SKY/WX    TMP DP  RH WIND       PRES   REMARKS
GUAM AIRPORT   MOSUNNY   84  73  70 E14G20    30.03R HX  91
ANDERSEN AFB   MOSUNNY   82  75  78 E13       30.04S
ROTA AIRPORT   MOSUNNY   81  73  78 E16       30.03S
TINIAN AP      MOSUNNY   84  75  74 E13       30.00S HX  92
SAIPAN AP      PTSUNNY   82  75  78 E12       30.02S

$$

PMZ161-210200-
REPUBLIC OF PALAU-

CITY           SKY/WX    TMP DP  RH WIND       PRES   REMARKS
KOROR AP       CLOUDY    82  75  78 E7        29.92S
KOROR WSO      CLOUDY    84  75  74 E8        29.94S HX  92

$$

PMZ171>174-210200-
FEDERATED STATES OF MICRONESIA-

CITY           SKY/WX    TMP DP  RH WIND       PRES   REMARKS
YAP AIRPORT    LGT RAIN  77  75  94 VRB5      29.95F
CHUUK AP       CLOUDY    86  82  89 NE14      29.89F HX 105
POHNPEI AP     CLOUDY    88  77  70 E13       29.86F HX 100
POHNPEI WSO    CLOUDY    86  75  70 E14       29.90F HX  95
KOSRAE AP      CLOUDY    88  75  66 NE14      29.83F HX  97

$$

PMZ181-210200-
REPUBLIC OF THE MARSHALL ISLANDS-

CITY           SKY/WX    TMP DP  RH WIND       PRES   REMARKS
KWAJALEIN AP   MOSUNNY   86  73  66 E21       29.88F HX  93
MAJURO AP      NOT AVBL
MAJURO WSO     MOSUNNY   84  77  79 NE12      29.84F HX  94

$$





USA.gov is the U.S. government's official web portal to all federal, state and local government web resources and services.